Tracking 19181 objects as of 17-Jun-2018
HD Live streaming from Space Station
objects crossing your sky now

FENGYUN 1C DEB

Track FENGYUN 1C DEB now!
10-day predictions


NORAD ID: 31912
Int'l Code: 1999-025CLP
Perigee: 769.8 km
Apogee: 1,608.3 km
Inclination: 98.8 °
Period: 109.0 minutes
Semi major axis: 7560 km
RCS: 0.0133 m2 (small)
Launch date: May 10, 1999
Source: People's Republic of China (PRC)
Launch site: Taiyaun Space Center, China (TSC)

Note: This is SATELLITE DEBRIS
aabbcc
Your satellite tracking list
Your tracking list is empty




NASA's NSSDC Master Catalog

Two Line Element Set (TLE):
1 31912U 99025CLP 18161.08282930 -.00000335 +00000-0 -33336-3 0  9994
2 31912 098.8466 270.5602 0554577 092.7836 273.6861 13.20732561529536
Source of the keplerian elements: AFSPC